Wind_Speed
14 15 16 17 17 18 18 17 17 18 18 18 18 19 18 18 18 18 18 18 17 17 17 17 16 17 17 18 18 18 18 18 18 19 20 21 22 22 22 23 22 22 22
16 16 17 18 17 18 19 18 17 18 19 19 19 18 18 17 18 18 18 18 17 17 16 16 17 17 17 18 18 18 18 18 18 19 21 22 22 22 22 22 22 22 22
17 18 18 18 18 18 18 18 17 18 19 19 18 18 18 18 18 17 17 17 17 17 16 16 16 17 17 17 17 17 18 18 19 19 20 21 21 22 22 22 22 22 22
19 19 19 18 17 17 17 17 18 19 19 19 17 17 18 18 17 17 17 17 17 17 17 17 17 17 17 17 17 17 18 19 19 19 19 20 20 21 21 21 21 21 21
18 18 18 18 17 18 18 18 19 20 19 18 17 16 17 17 16 16 16 17 17 17 17 17 17 16 16 17 17 17 18 19 19 19 19 19 19 19 20 20 21 21 22
17 17 17 17 17 17 18 18 19 20 19 18 17 16 17 17 16 16 15 16 16 17 16 16 16 17 17 17 17 18 18 18 19 18 19 19 20 19 19 20 20 20 21
17 16 16 17 17 18 18 19 19 19 19 18 17 16 16 16 16 16 16 16 16 16 16 16 17 17 17 17 17 18 18 18 18 19 18 19 19 19 20 20 20 21 21
16 16 16 17 18 18 18 18 18 18 17 17 16 16 15 14 14 15 15 16 15 15 15 15 16 16 16 16 16 17 17 18 18 18 17 18 19 20 19 19 19 20 21
16 16 17 18 18 19 18 17 17 15 14 14 14 14 14 14 14 14 14 14 14 14 14 14 14 14 15 15 16 16 17 17 17 17 18 18 19 19 19 19 19 19 19
16 16 17 18 18 18 16 15 15 14 14 14 14 14 14 14 13 13 14 14 15 15 14 13 13 13 14 15 15 15 15 15 16 16 17 18 17 18 18 19 20 20 20
16 17 17 17 16 16 16 15 14 14 14 14 13 13 13 13 13 13 14 14 14 14 13 13 13 13 14 14 14 15 15 15 16 16 17 18 18 18 19 20 20 21 21
16 16 16 16 16 16 16 14 13 13 13 13 14 13 13 14 14 14 14 14 14 14 13 13 13 13 13 13 14 15 15 16 16 17 17 18 18 19 19 19 20 20 21
16 17 17 17 17 16 15 15 14 14 14 14 13 13 14 14 14 14 14 14 14 13 13 13 13 13 14 14 15 15 15 16 16 17 17 18 18 18 19 20 21 21 21
17 17 17 17 17 16 15 15 14 14 14 14 14 14 14 14 14 14 15 14 14 13 13 13 14 14 14 15 15 16 16 16 17 16 17 18 18 18 19 20 21 21 22
17 17 17 17 16 16 15 15 15 15 15 15 15 15 15 15 15 15 15 14 14 14 14 14 14 15 16 16 17 17 17 17 17 16 17 18 19 19 19 20 21 21 22
16 16 16 16 16 15 14 15 15 15 15 15 15 15 15 15 15 15 15 14 14 14 14 15 15 15 16 17 17 17 17 17 17 18 18 19 19 20 20 20 21 21 22
17 17 17 17 16 16 16 16 17 15 15 16 16 16 15 15 15 15 15 15 15 15 15 16 16 16 17 17 17 17 17 17 17 18 18 19 19 19 20 20 21 21 21
17 17 18 17 16 16 17 17 17 17 16 16 16 16 16 15 15 15 15 15 15 15 16 17 17 17 17 17 17 17 17 17 18 18 18 19 19 19 20 20 21 21 21
17 17 17 17 17 17 17 18 18 17 17 16 17 17 17 16 16 15 15 16 16 16 17 17 17 18 18 18 18 18 17 17 18 18 18 19 19 19 19 20 20 21 22
17 18 18 18 18 19 19 19 18 17 17 17 17 17 17 17 16 16 16 17 17 17 17 17 18 18 18 18 18 18 18 18 19 19 19 19 20 20 20 20 20 21 22
18 18 19 19 19 19 19 18 18 18 18 18 18 17 17 17 17 17 17 17 17 17 17 17 18 18 18 19 19 19 20 20 20 20 20 20 19 20 20 20 20 21 21
18 19 19 20 20 20 20 19 19 19 19 18 18 18 18 18 17 17 18 18 18 18 18 19 19 20 19 19 20 20 20 20 20 20 20 19 19 20 20 20 20 20 20
20 20 20 21 21 21 21 20 20 20 20 19 19 18 18 18 18 18 18 19 19 19 19 20 20 20 20 20 20 21 21 21 20 20 19 19 19 19 19 20 21 21 20
22 21 22 22 22 22 21 21 21 21 21 20 20 19 19 19 19 19 19 19 20 20 20 20 20 20 20 21 20 21 21 21 20 19 19 19 19 19 19 20 21 21 21
23 22 22 22 22 22 22 22 22 21 21 20 20 20 20 20 20 20 19 20 20 21 22 21 21 21 20 20 20 20 20 19 19 18 18 18 18 19 19 20 20 21 21
23 23 23 23 23 23 24 24 24 23 22 21 22 21 21 21 20 20 20 21 21 21 22 21 21 21 20 20 20 20 19 19 18 17 17 17 17 17 18 18 19 19 20
Wind_Direction
290 292 292 296 293 295 297 297 298 298 300 301 301 303 300 296 294 293 290 290 289 285 283 283 280 277 275 273 271 270 269 268 266 263 261 261 260 260 261 260 258 258 258
288 291 294 298 295 293 293 294 297 299 300 301 299 300 297 294 290 290 290 290 287 284 282 281 281 279 277 274 271 269 269 270 268 266 264 263 262 262 261 258 257 257 258
289 292 297 297 295 293 293 294 296 298 299 300 299 299 297 294 290 289 290 291 289 285 283 281 282 281 278 275 271 269 269 270 270 270 269 267 265 264 264 262 259 258 258
290 291 296 296 293 293 295 298 298 297 298 299 298 295 296 295 292 289 288 286 286 286 284 281 280 280 280 277 273 271 271 271 271 271 272 270 268 265 262 260 261 260 259
292 294 298 297 296 296 298 299 301 298 296 297 297 296 296 295 294 293 289 288 286 285 284 283 279 277 279 278 275 273 274 272 271 272 272 271 271 268 262 260 260 260 261
291 294 298 300 299 297 299 299 297 300 297 297 297 296 295 294 294 293 294 293 289 284 281 282 278 276 277 277 276 276 278 277 274 274 272 272 272 270 266 263 263 263 263
291 292 298 301 299 298 297 300 300 300 297 297 297 295 298 298 297 295 296 294 292 287 283 282 280 278 276 276 278 277 279 278 276 274 273 273 272 270 267 265 265 264 264
291 293 298 301 302 300 302 304 304 302 299 297 296 294 297 298 299 300 298 295 291 289 290 288 284 280 279 279 280 281 281 278 275 272 273 274 273 271 269 268 267 266 266
291 295 296 299 301 301 302 304 304 304 303 302 297 294 294 297 299 302 300 297 296 296 295 291 287 285 283 281 279 280 282 280 274 272 274 275 273 273 271 270 269 270 271
295 298 298 299 301 302 302 303 304 306 304 303 299 297 295 296 299 303 300 301 301 298 295 292 293 292 288 286 283 282 283 282 281 280 279 278 276 277 274 272 271 272 273
298 300 299 299 301 302 303 302 304 306 305 305 302 299 298 297 300 304 304 303 301 299 294 291 292 293 293 292 290 287 285 281 282 282 279 279 278 277 275 274 275 275 276
300 301 300 299 303 303 302 302 308 311 309 306 303 304 302 301 300 301 302 302 299 298 294 291 292 293 294 294 292 289 287 283 283 283 281 281 281 278 277 275 275 276 277
295 299 302 303 305 306 306 306 308 309 308 305 303 303 302 302 301 301 301 300 297 296 294 293 293 292 293 293 292 290 287 285 283 283 283 283 285 280 276 275 277 278 278
293 298 301 304 305 305 305 306 307 307 307 307 304 301 300 301 302 301 302 302 298 295 293 291 292 293 292 292 293 292 289 287 284 283 283 284 285 284 282 281 281 280 279
293 298 303 303 302 301 301 303 303 304 304 305 303 300 301 299 300 300 300 300 299 296 291 290 291 293 293 293 293 292 289 288 287 287 287 287 286 286 285 284 283 282 282
292 295 301 301 300 299 298 298 300 301 302 302 301 301 302 300 299 301 301 299 298 296 293 292 294 294 294 294 293 293 291 289 289 290 290 290 289 287 286 285 284 284 284
288 292 296 296 296 297 297 297 299 298 299 301 301 301 302 301 299 298 298 298 297 296 295 293 294 295 295 295 293 291 291 291 290 290 290 289 287 287 285 286 287 287 288
282 289 291 292 292 295 296 297 297 298 298 300 301 300 299 300 299 300 297 297 296 295 296 295 294 295 295 292 293 292 292 291 292 293 293 291 289 287 286 286 287 288 291
284 288 290 291 291 293 294 295 295 295 296 298 300 299 297 298 298 298 296 295 295 294 295 296 295 294 294 293 293 293 292 294 295 294 294 294 292 290 289 289 289 290 291
284 287 290 291 291 293 294 294 292 292 294 296 298 298 295 296 297 297 297 295 293 293 294 295 294 294 294 295 295 294 295 295 295 294 294 294 293 292 292 292 291 292 292
284 286 287 289 290 293 294 291 290 291 293 294 296 296 294 294 294 295 295 294 293 293 294 294 294 297 298 297 296 298 297 295 294 293 293 294 296 297 296 295 296 295 295
281 284 284 286 289 291 292 290 287 287 290 293 293 293 294 294 293 293 293 294 293 293 295 294 294 297 299 299 299 300 299 298 296 294 294 295 296 297 297 297 298 298 298
281 284 285 284 286 289 290 289 287 287 289 292 291 292 292 291 292 292 294 294 294 292 293 294 294 294 294 296 298 300 300 300 297 294 293 293 295 296 297 297 296 296 296
279 282 282 282 282 284 285 286 286 287 288 289 290 290 291 290 290 291 293 295 296 294 293 293 293 293 294 294 296 298 297 298 297 295 293 292 293 295 298 299 299 297 298
279 281 281 281 280 281 283 283 284 286 286 286 287 287 287 287 289 290 291 293 295 296 294 292 292 293 293 293 296 297 298 297 294 292 292 292 294 296 299 301 300 300 300
278 280 282 282 281 281 284 284 286 285 283 283 283 284 286 287 289 291 290 292 294 295 294 293 292 292 293 294 296 297 298 300 299 296 294 294 296 299 301 303 304 304 304
Height
5838 5837 5836 5834 5833 5832 5830 5829 5828 5826 5824 5822 5820 5818 5816 5814 5813 5811 5809 5808 5807 5806 5804 5804 5803 5802 5802 5802 5802 5803 5803 5804 5804 5805 5806 5807 5808 5809 5809 5810 5811 5812 5813
5835 5833 5832 5830 5828 5827 5826 5824 5822 5821 5819 5817 5816 5814 5812 5810 5809 5807 5805 5803 5802 5801 5800 5800 5799 5798 5798 5798 5798 5798 5799 5799 5799 5800 5801 5802 5803 5803 5804 5804 5805 5806 5807
5831 5829 5827 5826 5824 5822 5821 5819 5818 5816 5814 5813 5811 5809 5808 5806 5804 5803 5801 5799 5798 5797 5796 5796 5795 5795 5794 5794 5794 5794 5794 5794 5795 5795 5796 5796 5797 5798 5798 5798 5799 5800 5801
5826 5824 5823 5821 5820 5818 5816 5815 5813 5812 5810 5808 5806 5805 5803 5802 5800 5798 5796 5795 5794 5793 5792 5792 5791 5791 5790 5790 5790 5789 5789 5789 5790 5790 5790 5791 5791 5792 5793 5793 5793 5794 5795
5822 5820 5819 5817 5816 5814 5812 5810 5808 5807 5805 5803 5802 5800 5799 5797 5796 5793 5792 5790 5789 5789 5788 5787 5787 5786 5786 5786 5785 5785 5785 5784 5785 5785 5785 5785 5785 5786 5787 5788 5788 5789 5790
5817 5816 5815 5813 5811 5809 5808 5806 5804 5802 5800 5799 5797 5796 5794 5793 5791 5790 5788 5786 5785 5784 5784 5783 5782 5782 5781 5781 5781 5780 5780 5779 5779 5779 5780 5780 5780 5781 5781 5782 5782 5783 5784
5814 5812 5811 5809 5808 5805 5804 5802 5799 5797 5795 5794 5793 5791 5790 5788 5787 5785 5784 5782 5781 5780 5779 5779 5778 5777 5777 5776 5776 5775 5775 5774 5774 5774 5774 5774 5775 5775 5775 5776 5777 5777 5778
5810 5809 5807 5806 5804 5802 5800 5798 5795 5793 5791 5789 5788 5787 5785 5784 5783 5781 5779 5778 5777 5777 5776 5775 5774 5773 5772 5772 5771 5770 5770 5769 5769 5769 5769 5769 5770 5769 5770 5770 5771 5771 5772
5806 5805 5804 5802 5800 5798 5796 5794 5791 5789 5787 5785 5784 5783 5781 5781 5779 5777 5776 5775 5774 5773 5772 5771 5770 5769 5768 5767 5766 5766 5765 5764 5764 5764 5764 5765 5765 5764 5764 5764 5765 5766 5766
5803 5801 5800 5798 5796 5794 5792 5790 5788 5786 5784 5782 5781 5779 5778 5777 5776 5774 5773 5772 5770 5769 5768 5767 5766 5765 5764 5763 5762 5761 5760 5760 5760 5759 5759 5759 5759 5759 5759 5759 5759 5759 5760
5799 5797 5796 5794 5792 5790 5788 5786 5785 5783 5781 5779 5778 5776 5775 5774 5773 5771 5770 5769 5767 5766 5765 5764 5763 5762 5761 5759 5758 5757 5756 5756 5755 5755 5755 5754 5754 5754 5754 5753 5753 5753 5753
5795 5794 5792 5790 5788 5786 5784 5783 5781 5779 5778 5777 5775 5774 5772 5771 5770 5768 5767 5766 5764 5763 5762 5760 5759 5758 5757 5756 5755 5753 5752 5752 5751 5750 5750 5749 5749 5748 5748 5748 5747 5747 5747
5791 5790 5788 5786 5784 5783 5781 5779 5777 5776 5775 5773 5772 5771 5769 5768 5766 5765 5763 5762 5761 5760 5758 5757 5756 5755 5754 5752 5751 5750 5749 5748 5747 5746 5745 5744 5743 5743 5742 5742 5742 5741 5741
5787 5786 5784 5783 5781 5779 5777 5776 5774 5773 5771 5770 5768 5767 5766 5764 5763 5761 5760 5758 5757 5756 5755 5754 5752 5751 5750 5749 5747 5746 5745 5744 5743 5741 5740 5740 5739 5738 5737 5736 5735 5735 5734
5783 5782 5781 5779 5777 5775 5774 5772 5771 5769 5768 5766 5765 5764 5762 5761 5759 5758 5756 5755 5753 5752 5751 5750 5749 5747 5746 5745 5743 5742 5741 5739 5738 5737 5736 5735 5734 5733 5732 5730 5730 5729 5728
5779 5778 5776 5775 5773 5771 5770 5768 5767 5765 5764 5763 5761 5760 5758 5757 5755 5754 5752 5751 5749 5748 5747 5746 5745 5744 5742 5741 5739 5738 5736 5735 5734 5732 5731 5730 5729 5727 5726 5725 5724 5723 5722
5774 5773 5772 5770 5769 5768 5766 5764 5762 5761 5760 5759 5757 5756 5754 5752 5751 5749 5748 5747 5746 5744 5743 5742 5741 5740 5738 5737 5735 5733 5732 5730 5729 5727 5726 5725 5723 5722 5720 5719 5718 5717 5715
5770 5769 5767 5766 5765 5763 5762 5760 5758 5757 5756 5754 5753 5752 5750 5748 5747 5745 5744 5743 5741 5740 5739 5738 5737 5735 5734 5732 5730 5729 5727 5725 5724 5722 5721 5719 5717 5716 5715 5713 5712 5710 5708
5764 5764 5763 5761 5760 5759 5757 5755 5754 5753 5751 5750 5748 5747 5745 5744 5742 5741 5740 5738 5737 5736 5735 5734 5732 5731 5729 5727 5726 5724 5722 5721 5719 5717 5715 5713 5712 5710 5709 5707 5706 5704 5702
5759 5758 5757 5756 5755 5754 5752 5751 5749 5748 5747 5745 5744 5742 5741 5739 5738 5737 5735 5734 5733 5731 5730 5729 5727 5726 5724 5722 5721 5719 5717 5715 5713 5712 5710 5708 5706 5704 5702 5701 5699 5697 5695
5754 5753 5752 5751 5750 5748 5747 5746 5744 5743 5742 5740 5738 5737 5736 5734 5733 5732 5731 5729 5728 5726 5725 5724 5722 5721 5719 5717 5715 5714 5712 5709 5707 5706 5704 5702 5700 5698 5696 5694 5692 5690 5688
5749 5748 5747 5745 5744 5743 5742 5740 5739 5737 5735 5734 5733 5732 5731 5729 5728 5727 5725 5724 5722 5721 5720 5718 5717 5715 5713 5712 5710 5708 5706 5704 5702 5700 5698 5696 5694 5692 5690 5688 5686 5684 5682
5743 5742 5741 5739 5738 5737 5736 5735 5733 5731 5730 5729 5727 5726 5725 5724 5723 5721 5720 5719 5717 5715 5714 5712 5711 5709 5707 5706 5704 5702 5700 5698 5696 5694 5692 5690 5688 5687 5685 5683 5681 5678 5676
5736 5735 5734 5733 5732 5731 5730 5729 5727 5725 5724 5723 5722 5720 5719 5718 5717 5716 5714 5713 5711 5710 5708 5706 5705 5703 5701 5700 5698 5696 5694 5692 5690 5688 5687 5685 5683 5681 5679 5677 5675 5672 5670
5729 5728 5727 5726 5725 5724 5723 5722 5721 5719 5718 5717 5716 5714 5713 5712 5711 5710 5708 5707 5705 5703 5702 5700 5698 5697 5696 5694 5692 5690 5688 5686 5684 5682 5681 5679 5678 5676 5674 5671 5669 5666 5664
5722 5721 5720 5719 5718 5717 5716 5715 5714 5713 5712 5711 5710 5709 5707 5706 5705 5704 5702 5700 5699 5697 5696 5694 5692 5691 5689 5688 5686 5684 5683 5681 5679 5677 5676 5674 5672 5671 5668 5666 5663 5661 5658